When you browse on this site, cookies collect data to enhance your experience and personalize the content and advertising you see.
Visit our Privacy Policy to learn more. By continuing to use the site, you agree to this use of cookies and data.

Tiempo cada hora Kurytyba

Hoy, 19 Septiembre, Sábado

Tiempo Temperatura Precipitaciones Viento Presión Humedad
00:00 +19°C° 0 mm 1 mps 680 mmHg 70%
01:00 +19°C° 0 mm 1 mps 679 mmHg 70%
02:00 +18°C° 0 mm 1 mps 679 mmHg 70%
03:00 +18°C° 0 mm 1 mps 679 mmHg 69%
04:00 +16°C° 0 mm 1 mps 679 mmHg 71%
05:00 +16°C° 0 mm 1 mps 679 mmHg 73%
06:00 +16°C° 0 mm 1 mps 679 mmHg 75%
07:00 +19°C° 0 mm 1 mps 680 mmHg 66%
08:00 +22°C° 0 mm 1 mps 681 mmHg 58%
09:00 +24°C° 0 mm 1 mps 682 mmHg 50%
10:00 +25°C° 0 mm 1 mps 682 mmHg 43%
11:00 +27°C° 0 mm 2 mps 682 mmHg 36%
12:00 +28°C° 0 mm 3 mps 682 mmHg 29%
13:00 +29°C° 0 mm 2 mps 682 mmHg 28%
14:00 +29°C° 0 mm 2 mps 681 mmHg 27%
15:00 +29°C° 0 mm 2 mps 681 mmHg 26%
16:00 +27°C° 0 mm 2 mps 681 mmHg 33%
17:00 +25°C° 0 mm 2 mps 681 mmHg 40%
18:00 +23°C° 0 mm 1 mps 681 mmHg 48%
19:00 +21°C° 0 mm 2 mps 681 mmHg 61%
20:00 +19°C° 0 mm 2 mps 681 mmHg 73%
21:00 +17°C° 0 mm 3 mps 682 mmHg 86%
22:00 +17°C° 0 mm 3 mps 682 mmHg 86%
23:00 +16°C° 0 mm 3 mps 683 mmHg 85%

Mañana, 20 Septiembre, Domingo

Tiempo Temperatura Precipitaciones Viento Presión Humedad
00:00 +16°C° 0 mm 3 mps 683 mmHg 85%
01:00 +16°C° 0 mm 3 mps 683 mmHg 85%
02:00 +16°C° 0 mm 2 mps 682 mmHg 84%
03:00 +15°C° 0 mm 2 mps 682 mmHg 84%
04:00 +15°C° 0 mm 2 mps 682 mmHg 84%
05:00 +15°C° 0 mm 2 mps 683 mmHg 84%
06:00 +14°C° 0 mm 2 mps 683 mmHg 85%
07:00 +15°C° 0 mm 2 mps 683 mmHg 82%
08:00 +15°C° 0 mm 2 mps 684 mmHg 79%
09:00 +15°C° 0 mm 2 mps 684 mmHg 76%
10:00 +16°C° 0 mm 2 mps 684 mmHg 72%
11:00 +17°C° 0 mm 2 mps 684 mmHg 69%
12:00 +18°C° 0 mm 3 mps 684 mmHg 66%
13:00 +18°C° 0 mm 3 mps 683 mmHg 67%
14:00 +18°C° 0 mm 3 mps 683 mmHg 67%
15:00 +18°C° 0 mm 3 mps 683 mmHg 68%
16:00 +16°C° 0 mm 3 mps 683 mmHg 73%
17:00 +14°C° 0 mm 3 mps 682 mmHg 78%
18:00 +14°C° 0 mm 2 mps 682 mmHg 84%
19:00 +13°C° 0 mm 2 mps 682 mmHg 84%
20:00 +13°C° 0 mm 2 mps 683 mmHg 85%
21:00 +13°C° 0 mm 2 mps 683 mmHg 86%
22:00 +13°C° 0 mm 2 mps 683 mmHg 87%
23:00 +13°C° 0 mm 2 mps 683 mmHg 88%

Pasado mañana, 21 Septiembre, Lunes

Tiempo Temperatura Precipitaciones Viento Presión Humedad
00:00 +13°C° 0 mm 2 mps 683 mmHg 89%
01:00 +13°C° 0 mm 2 mps 683 mmHg 89%
02:00 +13°C° 0 mm 2 mps 682 mmHg 90%
03:00 +13°C° 0 mm 1 mps 682 mmHg 90%
04:00 +13°C° 0.2 mm 1 mps 682 mmHg 91%
05:00 +13°C° 0.2 mm 1 mps 682 mmHg 92%
06:00 +13°C° 0.2 mm 1 mps 683 mmHg 92%
07:00 +14°C° 0.1 mm 2 mps 683 mmHg 91%
08:00 +14°C° 0.1 mm 2 mps 683 mmHg 89%
09:00 +15°C° 0.1 mm 2 mps 684 mmHg 87%
10:00 +15°C° 0 mm 2 mps 684 mmHg 83%
11:00 +16°C° 0 mm 2 mps 684 mmHg 79%
12:00 +17°C° 0 mm 2 mps 684 mmHg 74%
13:00 +17°C° 0 mm 2 mps 684 mmHg 76%
14:00 +16°C° 0 mm 2 mps 683 mmHg 78%
15:00 +16°C° 0 mm 2 mps 682 mmHg 81%
16:00 +15°C° 0 mm 2 mps 682 mmHg 84%
17:00 +14°C° 0 mm 2 mps 683 mmHg 88%
18:00 +13°C° 0 mm 2 mps 683 mmHg 91%
19:00 +13°C° 0 mm 2 mps 683 mmHg 91%
20:00 +13°C° 0 mm 2 mps 683 mmHg 91%
21:00 +13°C° 0 mm 2 mps 684 mmHg 90%
22:00 +13°C° 0 mm 2 mps 684 mmHg 90%
23:00 +13°C° 0 mm 2 mps 684 mmHg 91%

22 Septiembre, Martes

Tiempo Temperatura Precipitaciones Viento Presión Humedad
00:00 +13°C° 0 mm 2 mps 683 mmHg 91%
01:00 +13°C° 0 mm 2 mps 683 mmHg 91%
02:00 +13°C° 0 mm 2 mps 683 mmHg 91%
03:00 +12°C° 0 mm 2 mps 683 mmHg 91%
04:00 +13°C° 0 mm 2 mps 683 mmHg 91%
05:00 +13°C° 0 mm 2 mps 683 mmHg 90%
06:00 +13°C° 0 mm 2 mps 683 mmHg 90%
07:00 +13°C° 0 mm 2 mps 684 mmHg 89%
08:00 +13°C° 0 mm 2 mps 684 mmHg 87%
09:00 +14°C° 0 mm 2 mps 685 mmHg 86%
10:00 +15°C° 0 mm 2 mps 685 mmHg 80%
11:00 +17°C° 0 mm 2 mps 685 mmHg 74%
12:00 +18°C° 0 mm 3 mps 686 mmHg 68%
13:00 +18°C° 0 mm 2 mps 685 mmHg 71%
14:00 +17°C° 0 mm 2 mps 685 mmHg 73%
15:00 +17°C° 0 mm 2 mps 684 mmHg 75%
16:00 +16°C° 0 mm 2 mps 684 mmHg 79%
17:00 +15°C° 0 mm 2 mps 684 mmHg 82%
18:00 +15°C° 0 mm 2 mps 685 mmHg 85%
19:00 +14°C° 0 mm 2 mps 685 mmHg 87%
20:00 +14°C° 0 mm 2 mps 685 mmHg 88%
21:00 +14°C° 0 mm 2 mps 685 mmHg 89%
22:00 +14°C° 0 mm 2 mps 685 mmHg 90%
23:00 +14°C° 0 mm 2 mps 685 mmHg 90%

23 Septiembre, Miércoles

Tiempo Temperatura Precipitaciones Viento Presión Humedad
00:00 +14°C° 0 mm 2 mps 685 mmHg 90%
01:00 +14°C° 0 mm 2 mps 685 mmHg 90%
02:00 +14°C° 0 mm 2 mps 685 mmHg 91%
03:00 +14°C° 0 mm 1 mps 685 mmHg 91%
04:00 +14°C° 0 mm 1 mps 685 mmHg 92%
05:00 +14°C° 0 mm 1 mps 685 mmHg 92%
06:00 +14°C° 0 mm 1 mps 685 mmHg 92%
07:00 +15°C° 0 mm 2 mps 685 mmHg 89%
08:00 +16°C° 0 mm 2 mps 686 mmHg 85%
09:00 +16°C° 0 mm 2 mps 686 mmHg 82%
10:00 +18°C° 0 mm 2 mps 686 mmHg 74%
11:00 +20°C° 0 mm 2 mps 687 mmHg 67%
12:00 +21°C° 0 mm 2 mps 687 mmHg 60%
13:00 +21°C° 0 mm 2 mps 686 mmHg 60%
14:00 +21°C° 0 mm 2 mps 686 mmHg 60%
15:00 +21°C° 0 mm 3 mps 685 mmHg 61%
16:00 +20°C° 0 mm 2 mps 685 mmHg 68%
17:00 +19°C° 0 mm 2 mps 685 mmHg 75%
18:00 +17°C° 0 mm 2 mps 685 mmHg 82%
19:00 +17°C° 0 mm 2 mps 685 mmHg 85%
20:00 +16°C° 0 mm 2 mps 685 mmHg 88%
21:00 +15°C° 0 mm 2 mps 685 mmHg 91%
22:00 +15°C° 0 mm 2 mps 685 mmHg 92%
23:00 +16°C° 0 mm 2 mps 686 mmHg 93%

24 Septiembre, Jueves

Tiempo Temperatura Precipitaciones Viento Presión Humedad
00:00 +16°C° 0 mm 2 mps 686 mmHg 93%
01:00 +16°C° 0 mm 2 mps 685 mmHg 92%
02:00 +16°C° 0 mm 2 mps 685 mmHg 91%
03:00 +16°C° 0 mm 2 mps 684 mmHg 90%
04:00 +16°C° 0 mm 1 mps 684 mmHg 92%
05:00 +15°C° 0 mm 1 mps 684 mmHg 93%
06:00 +15°C° 0 mm 1 mps 684 mmHg 95%
07:00 +16°C° 0 mm 1 mps 685 mmHg 89%
08:00 +18°C° 0 mm 1 mps 685 mmHg 84%
09:00 +19°C° 0 mm 1 mps 686 mmHg 79%
10:00 +22°C° 0 mm 1 mps 686 mmHg 68%
11:00 +25°C° 0 mm 1 mps 686 mmHg 57%
12:00 +28°C° 0 mm 1 mps 686 mmHg 46%
13:00 +28°C° 0 mm 1 mps 686 mmHg 45%
14:00 +28°C° 0 mm 1 mps 685 mmHg 44%
15:00 +28°C° 0 mm 1 mps 684 mmHg 43%
16:00 +26°C° 0 mm 1 mps 684 mmHg 55%
17:00 +24°C° 0 mm 2 mps 683 mmHg 67%
18:00 +21°C° 0 mm 2 mps 683 mmHg 78%
19:00 +20°C° 0 mm 2 mps 683 mmHg 83%
20:00 +19°C° 0 mm 2 mps 683 mmHg 88%
21:00 +18°C° 0 mm 2 mps 684 mmHg 93%
22:00 +18°C° 0 mm 2 mps 684 mmHg 93%
23:00 +19°C° 0 mm 1 mps 684 mmHg 92%
Mostrar más